Time,TemperatureF,DewpointF,PressureIn,WindDirection,WindDirectionDegrees,WindSpeedMPH,WindSpeedGustMPH,Humidity,HourlyPrecipIn,Conditions,Clouds,dailyrainin,SoftwareType,DateUTC
2013-10-29 00:01:00,23.3,19.7,30.00,West,280,0.0,1.0,86,0.00,CLR,CLR,0.00,WeatherDisplay:10.34,2013-10-29 06:01:00,
2013-10-29 00:06:00,23.3,19.7,30.00,West,280,1.0,2.0,86,0.00,CLR,CLR,0.00,WeatherDisplay:10.34,2013-10-29 06:06:00,
2013-10-29 00:11:00,23.3,20.0,30.00,West,281,0.0,2.0,87,0.00,CLR,CLR,0.00,WeatherDisplay:10.34,2013-10-29 06:11:00,
2013-10-29 00:16:00,23.3,20.0,30.00,WNW,290,0.0,1.0,87,0.00,CLR,CLR,0.00,WeatherDisplay:10.34,2013-10-29 06:16:00,
2013-10-29 00:21:00,23.4,20.1,29.99,WNW,302,1.0,3.0,87,0.00,CLR,CLR,0.00,WeatherDisplay:10.34,2013-10-29 06:21:00,
2013-10-29 00:26:00,23.4,20.1,29.99,WNW,300,4.0,5.0,87,0.00,CLR,CLR,0.00,WeatherDisplay:10.34,2013-10-29 06:26:00,
2013-10-29 00:31:00,23.4,20.1,29.99,WNW,288,4.0,5.0,87,0.00,CLR,CLR,0.00,WeatherDisplay:10.34,2013-10-29 06:31:00,
2013-10-29 00:36:00,23.4,20.1,29.99,WNW,302,1.0,2.0,87,0.00,CLR,CLR,0.00,WeatherDisplay:10.34,2013-10-29 06:36:00,
2013-10-29 00:41:00,23.4,20.1,30.00,WNW,303,0.0,2.0,87,0.00,CLR,CLR,0.00,WeatherDisplay:10.34,2013-10-29 06:41:00,
2013-10-29 00:46:00,23.5,20.2,30.00,NW,319,1.0,2.0,87,0.00,CLR,CLR,0.00,WeatherDisplay:10.34,2013-10-29 06:46:00,
2013-10-29 00:51:00,23.6,20.3,30.00,NNW,329,3.0,3.0,87,0.00,CLR,CLR,0.00,WeatherDisplay:10.34,2013-10-29 06:51:00,
2013-10-29 00:56:00,23.6,20.3,29.99,WNW,290,1.0,5.0,87,0.00,CLR,CLR,0.00,WeatherDisplay:10.34,2013-10-29 06:56:00,
2013-10-29 01:01:00,23.6,20.3,29.99,WNW,300,2.0,3.0,87,0.00,CLR,CLR,0.00,WeatherDisplay:10.34,2013-10-29 07:01:00,
2013-10-29 01:06:00,23.6,20.3,29.99,NW,318,2.0,3.0,87,0.00,CLR,CLR,0.00,WeatherDisplay:10.34,2013-10-29 07:06:00,
2013-10-29 01:11:00,23.6,20.3,29.98,WNW,302,1.0,2.0,87,0.00,CLR,CLR,0.00,WeatherDisplay:10.34,2013-10-29 07:11:00,
2013-10-29 01:16:00,23.7,20.4,29.98,WNW,297,0.0,2.0,87,0.00,CLR,CLR,0.00,WeatherDisplay:10.34,2013-10-29 07:16:00,
2013-10-29 01:21:00,23.7,20.4,29.98,WNW,300,1.0,3.0,87,0.00,CLR,CLR,0.00,WeatherDisplay:10.34,2013-10-29 07:21:00,
2013-10-29 01:26:00,23.6,20.0,29.98,WNW,285,3.0,5.0,86,0.00,CLR,CLR,0.00,WeatherDisplay:10.34,2013-10-29 07:26:00,
2013-10-29 01:31:00,23.7,20.4,29.98,WNW,288,2.0,7.0,87,0.00,CLR,CLR,0.00,WeatherDisplay:10.34,2013-10-29 07:31:00,
2013-10-29 01:36:00,23.7,20.4,29.98,WNW,303,0.0,1.0,87,0.00,CLR,CLR,0.00,WeatherDisplay:10.34,2013-10-29 07:36:00,
2013-10-29 01:41:00,23.7,20.4,29.97,NW,319,4.0,5.0,87,0.00,CLR,CLR,0.00,WeatherDisplay:10.34,2013-10-29 07:41:00,
2013-10-29 01:46:00,23.6,20.3,29.97,WNW,303,3.0,3.0,87,0.00,CLR,CLR,0.00,WeatherDisplay:10.34,2013-10-29 07:46:00,
2013-10-29 01:51:00,23.6,20.3,29.98,NW,305,5.0,7.0,87,0.00,CLR,CLR,0.00,WeatherDisplay:10.34,2013-10-29 07:51:00,
2013-10-29 01:56:00,23.6,20.0,29.98,NW,304,1.0,5.0,86,0.00,CLR,CLR,0.00,WeatherDisplay:10.34,2013-10-29 07:56:00,
2013-10-29 02:01:00,23.6,20.3,29.98,WNW,300,2.0,3.0,87,0.00,CLR,CLR,0.00,WeatherDisplay:10.34,2013-10-29 08:01:00,
2013-10-29 02:06:00,23.6,20.3,29.98,NW,321,6.0,8.0,87,0.00,CLR,CLR,0.00,WeatherDisplay:10.34,2013-10-29 08:06:00,
2013-10-29 02:11:00,23.6,20.3,29.98,NW,315,4.0,7.0,87,0.00,CLR,CLR,0.00,WeatherDisplay:10.34,2013-10-29 08:11:00,
2013-10-29 02:16:00,23.6,20.3,29.98,NW,311,4.0,8.0,87,0.00,CLR,CLR,0.00,WeatherDisplay:10.34,2013-10-29 08:16:00,
2013-10-29 02:21:00,23.5,20.2,29.98,WNW,299,6.0,8.0,87,0.00,CLR,CLR,0.00,WeatherDisplay:10.34,2013-10-29 08:21:00,
2013-10-29 02:26:00,23.5,20.2,29.98,NW,322,3.0,5.0,87,0.00,CLR,CLR,0.00,WeatherDisplay:10.34,2013-10-29 08:26:00,
2013-10-29 02:31:00,23.5,20.2,29.98,WNW,291,2.0,3.0,87,0.00,CLR,CLR,0.00,WeatherDisplay:10.34,2013-10-29 08:31:00,
2013-10-29 02:36:00,23.4,20.1,29.98,NNW,329,5.0,7.0,87,0.00,CLR,CLR,0.00,WeatherDisplay:10.34,2013-10-29 08:36:00,
2013-10-29 02:41:00,23.4,20.1,29.98,NW,322,4.0,7.0,87,0.00,CLR,CLR,0.00,WeatherDisplay:10.34,2013-10-29 08:41:00,
2013-10-29 02:46:00,23.3,20.0,29.98,WNW,294,5.0,5.0,87,0.00,CLR,CLR,0.00,WeatherDisplay:10.34,2013-10-29 08:46:00,
2013-10-29 02:51:00,23.2,20.2,29.98,WNW,302,2.0,5.0,88,0.00,CLR,CLR,0.00,WeatherDisplay:10.34,2013-10-29 08:51:00,
2013-10-29 02:56:00,23.2,20.2,29.98,WNW,290,2.0,5.0,88,0.00,CLR,CLR,0.00,WeatherDisplay:10.34,2013-10-29 08:56:00,
2013-10-29 03:01:00,23.1,20.1,29.98,NW,312,2.0,3.0,88,0.00,CLR,CLR,0.00,WeatherDisplay:10.34,2013-10-29 09:01:00,
2013-10-29 03:06:00,23.2,20.2,29.98,WNW,287,1.0,3.0,88,0.00,CLR,CLR,0.00,WeatherDisplay:10.34,2013-10-29 09:06:00,
2013-10-29 03:11:00,23.1,20.1,29.98,WNW,299,2.0,7.0,88,0.00,CLR,CLR,0.00,WeatherDisplay:10.34,2013-10-29 09:11:00,
2013-10-29 03:16:00,23.1,20.1,29.98,NW,320,3.0,8.0,88,0.00,CLR,CLR,0.00,WeatherDisplay:10.34,2013-10-29 09:16:00,
2013-10-29 03:21:00,23.0,20.0,29.97,WNW,287,3.0,7.0,88,0.00,CLR,CLR,0.00,WeatherDisplay:10.34,2013-10-29 09:21:00,
2013-10-29 03:26:00,23.1,20.1,29.97,WNW,291,1.0,3.0,88,0.00,CLR,CLR,0.00,WeatherDisplay:10.34,2013-10-29 09:26:00,
2013-10-29 03:31:00,23.1,20.1,29.97,WNW,283,0.0,1.0,88,0.00,CLR,CLR,0.00,WeatherDisplay:10.34,2013-10-29 09:31:00,
2013-10-29 03:36:00,23.1,20.1,29.96,WNW,292,3.0,5.0,88,0.00,CLR,CLR,0.00,WeatherDisplay:10.34,2013-10-29 09:36:00,
2013-10-29 03:41:00,23.2,20.2,29.96,WNW,286,3.0,3.0,88,0.00,CLR,CLR,0.00,WeatherDisplay:10.34,2013-10-29 09:41:00,
2013-10-29 03:46:00,23.3,20.3,29.96,WNW,302,1.0,2.0,88,0.00,CLR,CLR,0.00,WeatherDisplay:10.34,2013-10-29 09:46:00,
2013-10-29 03:51:00,23.4,20.4,29.96,NW,322,0.0,1.0,88,0.00,CLR,CLR,0.00,WeatherDisplay:10.34,2013-10-29 09:51:00,
2013-10-29 03:56:00,23.4,20.4,29.96,NNW,340,0.0,0.0,88,0.00,CLR,CLR,0.00,WeatherDisplay:10.34,2013-10-29 09:56:00,
2013-10-29 04:01:00,23.5,20.5,29.96,WNW,292,1.0,2.0,88,0.00,CLR,CLR,0.00,WeatherDisplay:10.34,2013-10-29 10:01:00,
2013-10-29 04:06:00,23.5,20.5,29.96,NW,317,0.0,2.0,88,0.00,CLR,CLR,0.00,WeatherDisplay:10.34,2013-10-29 10:06:00,
2013-10-29 04:11:00,23.5,20.5,29.95,NW,320,0.0,1.0,88,0.00,CLR,CLR,0.00,WeatherDisplay:10.34,2013-10-29 10:11:00,
2013-10-29 04:16:00,23.6,20.6,29.95,NW,308,1.0,2.0,88,0.00,CLR,CLR,0.00,WeatherDisplay:10.34,2013-10-29 10:16:00,
2013-10-29 04:21:00,23.6,20.6,29.95,NW,312,0.0,1.0,88,0.00,CLR,CLR,0.00,WeatherDisplay:10.34,2013-10-29 10:21:00,
2013-10-29 04:26:00,23.6,20.6,29.95,WNW,300,0.0,1.0,88,0.00,CLR,CLR,0.00,WeatherDisplay:10.34,2013-10-29 10:26:00,
2013-10-29 04:31:00,23.6,20.6,29.94,WNW,301,0.0,0.0,88,0.00,CLR,CLR,0.00,WeatherDisplay:10.34,2013-10-29 10:31:00,
2013-10-29 04:36:00,23.7,20.7,29.94,WNW,299,0.0,0.0,88,0.00,CLR,CLR,0.00,WeatherDisplay:10.34,2013-10-29 10:36:00,
2013-10-29 04:41:00,23.7,20.7,29.95,WNW,300,0.0,1.0,88,0.00,CLR,CLR,0.00,WeatherDisplay:10.34,2013-10-29 10:41:00,
2013-10-29 04:46:00,23.7,20.7,29.95,WNW,300,0.0,0.0,88,0.00,CLR,CLR,0.00,WeatherDisplay:10.34,2013-10-29 10:46:00,
2013-10-29 04:51:00,23.7,20.7,29.94,WNW,300,0.0,1.0,88,0.00,CLR,CLR,0.00,WeatherDisplay:10.34,2013-10-29 10:51:00,
2013-10-29 04:56:00,23.8,20.8,29.94,WNW,300,0.0,0.0,88,0.00,CLR,CLR,0.00,WeatherDisplay:10.34,2013-10-29 10:56:00,
2013-10-29 05:01:00,23.8,20.8,29.94,WNW,299,1.0,2.0,88,0.00,CLR,CLR,0.00,WeatherDisplay:10.34,2013-10-29 11:01:00,
2013-10-29 05:06:00,23.8,20.8,29.94,WNW,299,0.0,0.0,88,0.00,CLR,CLR,0.00,WeatherDisplay:10.34,2013-10-29 11:06:00,
2013-10-29 05:11:00,23.8,20.8,29.94,WNW,300,0.0,0.0,88,0.00,CLR,CLR,0.00,WeatherDisplay:10.34,2013-10-29 11:11:00,
2013-10-29 05:16:00,23.9,20.9,29.94,WNW,300,0.0,0.0,88,0.00,CLR,CLR,0.00,WeatherDisplay:10.34,2013-10-29 11:16:00,
2013-10-29 05:21:00,23.9,20.9,29.94,WNW,299,0.0,0.0,88,0.00,CLR,CLR,0.00,WeatherDisplay:10.34,2013-10-29 11:21:00,
2013-10-29 05:26:00,23.9,20.9,29.94,WNW,300,0.0,0.0,88,0.00,CLR,CLR,0.00,WeatherDisplay:10.34,2013-10-29 11:26:00,
2013-10-29 05:31:00,23.9,20.6,29.94,WNW,300,0.0,0.0,87,0.00,CLR,CLR,0.00,WeatherDisplay:10.34,2013-10-29 11:31:00,
2013-10-29 05:37:00,23.9,20.6,29.94,WNW,300,0.0,0.0,87,0.00,CLR,CLR,0.00,WeatherDisplay:10.34,2013-10-29 11:37:00,
2013-10-29 05:42:00,23.9,20.6,29.94,WNW,300,0.0,0.0,87,0.00,CLR,CLR,0.00,WeatherDisplay:10.34,2013-10-29 11:42:00,
2013-10-29 05:47:00,23.9,20.6,29.94,WNW,300,0.0,0.0,87,0.00,CLR,CLR,0.00,WeatherDisplay:10.34,2013-10-29 11:47:00,
2013-10-29 05:52:00,23.9,20.6,29.94,WNW,300,0.0,0.0,87,0.00,CLR,CLR,0.00,WeatherDisplay:10.34,2013-10-29 11:52:00,
2013-10-29 05:57:00,24.0,20.7,29.94,WNW,300,0.0,0.0,87,0.00,CLR,CLR,0.00,WeatherDisplay:10.34,2013-10-29 11:57:00,
2013-10-29 06:02:00,24.0,20.7,29.94,WNW,299,0.0,0.0,87,0.00,CLR,CLR,0.00,WeatherDisplay:10.34,2013-10-29 12:02:00,
2013-10-29 06:07:00,24.0,20.7,29.94,WNW,299,0.0,0.0,87,0.00,CLR,CLR,0.00,WeatherDisplay:10.34,2013-10-29 12:07:00,
2013-10-29 06:12:00,24.0,20.7,29.94,WNW,299,0.0,1.0,87,0.00,CLR,CLR,0.00,WeatherDisplay:10.34,2013-10-29 12:12:00,
2013-10-29 06:17:00,24.0,20.7,29.94,WNW,299,0.0,0.0,87,0.00,CLR,CLR,0.00,WeatherDisplay:10.34,2013-10-29 12:17:00,
2013-10-29 06:22:00,24.1,20.8,29.94,WNW,300,0.0,0.0,87,0.00,CLR,CLR,0.00,WeatherDisplay:10.34,2013-10-29 12:22:00,
2013-10-29 06:27:00,24.2,20.9,29.94,WNW,300,0.0,1.0,87,0.00,CLR,CLR,0.00,WeatherDisplay:10.34,2013-10-29 12:27:00,
2013-10-29 06:32:00,24.2,20.9,29.93,WNW,300,0.0,0.0,87,0.00,CLR,CLR,0.00,WeatherDisplay:10.34,2013-10-29 12:32:00,
2013-10-29 06:37:00,24.2,20.9,29.93,WNW,300,0.0,1.0,87,0.00,CLR,CLR,0.00,WeatherDisplay:10.34,2013-10-29 12:37:00,
2013-10-29 06:42:00,24.2,20.6,29.93,WNW,300,0.0,0.0,86,0.00,CLR,CLR,0.00,WeatherDisplay:10.34,2013-10-29 12:42:00,
2013-10-29 06:47:00,24.2,20.6,29.93,WNW,300,0.0,0.0,86,0.00,CLR,CLR,0.00,WeatherDisplay:10.34,2013-10-29 12:47:00,
2013-10-29 06:52:00,24.3,20.7,29.93,WNW,300,0.0,0.0,86,0.00,CLR,CLR,0.00,WeatherDisplay:10.34,2013-10-29 12:52:00,
2013-10-29 06:57:00,24.3,20.7,29.93,WNW,300,0.0,0.0,86,0.00,CLR,CLR,0.00,WeatherDisplay:10.34,2013-10-29 12:57:00,
2013-10-29 07:02:00,24.3,20.7,29.93,WNW,300,0.0,0.0,86,0.00,OVC,OVC,0.00,WeatherDisplay:10.34,2013-10-29 13:02:00,
2013-10-29 07:07:00,24.3,20.7,29.93,WNW,290,0.0,0.0,86,0.00,OVC,OVC,0.00,WeatherDisplay:10.34,2013-10-29 13:07:00,
2013-10-29 07:12:00,24.3,20.7,29.92,WNW,300,0.0,1.0,86,0.00,OVC,OVC,0.00,WeatherDisplay:10.34,2013-10-29 13:12:00,
2013-10-29 07:17:00,24.3,20.7,29.92,WNW,300,0.0,1.0,86,0.00,OVC,OVC,0.00,WeatherDisplay:10.34,2013-10-29 13:17:00,
2013-10-29 07:22:00,24.3,20.7,29.92,WNW,300,0.0,0.0,86,0.00,OVC,OVC,0.00,WeatherDisplay:10.34,2013-10-29 13:22:00,
2013-10-29 07:27:00,24.3,20.7,29.92,WNW,300,0.0,0.0,86,0.00,OVC,OVC,0.00,WeatherDisplay:10.34,2013-10-29 13:27:00,
2013-10-29 07:32:00,24.3,20.7,29.92,WNW,300,0.0,0.0,86,0.00,OVC,OVC,0.00,WeatherDisplay:10.34,2013-10-29 13:32:00,
2013-10-29 07:37:00,24.3,20.7,29.92,WNW,300,0.0,1.0,86,0.00,OVC,OVC,0.00,WeatherDisplay:10.34,2013-10-29 13:37:00,
2013-10-29 07:42:00,24.4,20.8,29.92,WNW,300,0.0,0.0,86,0.00,OVC,OVC,0.00,WeatherDisplay:10.34,2013-10-29 13:42:00,
2013-10-29 07:47:00,24.4,20.8,29.92,NW,323,2.0,2.0,86,0.00,OVC,OVC,0.00,WeatherDisplay:10.34,2013-10-29 13:47:00,
2013-10-29 07:52:00,24.4,20.8,29.92,NW,323,2.0,2.0,86,0.00,OVC,OVC,0.00,WeatherDisplay:10.34,2013-10-29 13:52:00,
2013-10-29 07:57:00,24.4,20.5,29.92,NW,323,0.0,1.0,85,0.00,OVC,OVC,0.00,WeatherDisplay:10.34,2013-10-29 13:57:00,
2013-10-29 08:02:00,24.4,20.8,29.92,NW,323,0.0,0.0,86,0.00,OVC,OVC,0.00,WeatherDisplay:10.34,2013-10-29 14:02:00,
2013-10-29 08:07:00,24.4,20.5,29.92,NW,323,0.0,1.0,85,0.00,OVC,OVC,0.00,WeatherDisplay:10.34,2013-10-29 14:07:00,
2013-10-29 08:12:00,24.4,20.5,29.92,NW,323,0.0,0.0,85,0.00,OVC,OVC,0.00,WeatherDisplay:10.34,2013-10-29 14:12:00,
2013-10-29 08:17:00,24.5,20.6,29.92,NW,323,0.0,0.0,85,0.00,OVC,OVC,0.00,WeatherDisplay:10.34,2013-10-29 14:17:00,
2013-10-29 08:22:00,24.5,20.6,29.93,WNW,286,1.0,1.0,85,0.00,OVC,OVC,0.00,WeatherDisplay:10.34,2013-10-29 14:22:00,
2013-10-29 08:27:00,24.6,20.7,29.93,WNW,286,0.0,0.0,85,0.00,OVC,OVC,0.00,WeatherDisplay:10.34,2013-10-29 14:27:00,
2013-10-29 08:32:00,24.7,20.8,29.93,WNW,286,0.0,0.0,85,0.00,CLR,CLR,0.00,WeatherDisplay:10.34,2013-10-29 14:32:00,
2013-10-29 08:37:00,24.8,21.2,29.93,WNW,286,0.0,0.0,86,0.00,CLR,CLR,0.00,WeatherDisplay:10.34,2013-10-29 14:37:00,
2013-10-29 08:42:00,24.9,21.3,29.93,WNW,286,0.0,0.0,86,0.00,CLR,CLR,0.00,WeatherDisplay:10.34,2013-10-29 14:42:00,
2013-10-29 08:47:00,25.1,21.5,29.93,WNW,286,0.0,1.0,86,0.00,CLR,CLR,0.00,WeatherDisplay:10.34,2013-10-29 14:47:00,
2013-10-29 08:52:00,25.2,21.6,29.93,WNW,286,1.0,0.0,86,0.00,CLR,CLR,0.00,WeatherDisplay:10.34,2013-10-29 14:52:00,
2013-10-29 08:57:00,25.3,21.7,29.93,WNW,286,0.0,0.0,86,0.00,CLR,CLR,0.00,WeatherDisplay:10.34,2013-10-29 14:57:00,
2013-10-29 09:02:00,25.5,21.9,29.93,WNW,286,0.0,0.0,86,0.00,CLR,CLR,0.00,WeatherDisplay:10.34,2013-10-29 15:02:00,
2013-10-29 09:07:00,25.7,22.1,29.93,NW,325,4.0,4.0,86,0.00,CLR,CLR,0.00,WeatherDisplay:10.34,2013-10-29 15:07:00,
2013-10-29 09:12:00,25.8,22.2,29.92,NW,325,1.0,2.0,86,0.00,CLR,CLR,0.00,WeatherDisplay:10.34,2013-10-29 15:12:00,
2013-10-29 09:17:00,25.8,21.9,29.92,NW,325,1.0,2.0,85,0.00,SCT,SCT,0.00,WeatherDisplay:10.34,2013-10-29 15:17:00,
2013-10-29 09:22:00,25.9,23.9,29.92,NNW,331,4.0,5.0,92,0.00,SCT,SCT,0.00,WeatherDisplay:10.34,2013-10-29 15:22:00,
2013-10-29 09:27:00,25.9,23.9,29.92,NNE,13,1.0,1.0,92,0.00,SCT,SCT,0.00,WeatherDisplay:10.34,2013-10-29 15:27:00,
2013-10-29 09:32:00,25.9,22.0,29.92,North,11,1.0,1.0,85,0.00,SCT,SCT,0.00,WeatherDisplay:10.34,2013-10-29 15:32:00,
2013-10-29 09:37:00,26.0,22.1,29.92,NE,36,1.0,1.0,85,0.00,SCT,SCT,0.00,WeatherDisplay:10.34,2013-10-29 15:37:00,
2013-10-29 09:42:00,26.1,22.2,29.92,NE,48,0.0,0.0,85,0.00,FEW,FEW,0.00,WeatherDisplay:10.34,2013-10-29 15:42:00,
2013-10-29 09:47:00,26.2,22.3,29.92,NE,51,0.0,1.0,85,0.00,FEW,FEW,0.00,WeatherDisplay:10.34,2013-10-29 15:47:00,
2013-10-29 09:52:00,26.4,22.8,29.92,NE,51,0.0,0.0,86,0.00,FEW,FEW,0.00,WeatherDisplay:10.34,2013-10-29 15:52:00,
2013-10-29 09:57:00,26.6,22.7,29.92,NE,56,0.0,0.0,85,0.00,FEW,FEW,0.00,WeatherDisplay:10.34,2013-10-29 15:57:00,
2013-10-29 10:02:00,26.6,22.7,29.92,NE,56,0.0,0.0,85,0.00,FEW,FEW,0.00,WeatherDisplay:10.34,2013-10-29 16:02:00,
2013-10-29 10:07:00,26.8,22.9,29.92,NE,56,0.0,0.0,85,0.00,FEW,FEW,0.00,WeatherDisplay:10.34,2013-10-29 16:07:00,
2013-10-29 10:12:00,27.0,23.1,29.92,ENE,61,1.0,1.0,85,0.00,SCT,SCT,0.00,WeatherDisplay:10.34,2013-10-29 16:12:00,
2013-10-29 10:17:00,27.2,23.0,29.92,ENE,61,0.0,0.0,84,0.00,FEW,FEW,0.00,WeatherDisplay:10.34,2013-10-29 16:17:00,
2013-10-29 10:22:00,27.1,22.9,29.92,SSE,150,4.0,4.0,84,0.00,FEW,FEW,0.00,WeatherDisplay:10.34,2013-10-29 16:22:00,
2013-10-29 10:27:00,26.9,22.7,29.92,SE,130,0.0,1.0,84,0.00,SCT,SCT,0.00,WeatherDisplay:10.34,2013-10-29 16:27:00,
2013-10-29 10:32:00,27.0,22.8,29.92,SE,128,0.0,0.0,84,0.00,FEW,FEW,0.00,WeatherDisplay:10.34,2013-10-29 16:32:00,
2013-10-29 10:37:00,27.1,22.9,29.92,SE,129,0.0,0.0,84,0.00,FEW,FEW,0.00,WeatherDisplay:10.34,2013-10-29 16:37:00,
2013-10-29 10:42:00,27.1,22.9,29.92,SSE,151,0.0,1.0,84,0.00,FEW,FEW,0.00,WeatherDisplay:10.34,2013-10-29 16:42:00,
2013-10-29 10:47:00,27.1,22.6,29.92,SSE,155,1.0,1.0,83,0.00,SCT,SCT,0.00,WeatherDisplay:10.34,2013-10-29 16:47:00,
2013-10-29 10:52:00,27.1,22.9,29.92,SSE,157,4.0,4.0,84,0.00,SCT,SCT,0.00,WeatherDisplay:10.34,2013-10-29 16:52:00,
2013-10-29 10:57:00,27.2,23.0,29.92,SSE,155,2.0,2.0,84,0.00,SCT,SCT,0.00,WeatherDisplay:10.34,2013-10-29 16:57:00,
2013-10-29 11:02:00,27.2,23.0,29.92,SSE,160,1.0,1.0,84,0.00,SCT,SCT,0.00,WeatherDisplay:10.34,2013-10-29 17:02:00,
2013-10-29 11:07:00,27.4,23.2,29.92,SSE,159,0.0,0.0,84,0.00,SCT,SCT,0.00,WeatherDisplay:10.34,2013-10-29 17:07:00,
2013-10-29 11:12:00,27.5,23.3,29.92,SSE,159,0.0,0.0,84,0.00,SCT,SCT,0.00,WeatherDisplay:10.34,2013-10-29 17:12:00,
2013-10-29 11:17:00,27.8,23.6,29.92,SSE,158,1.0,1.0,84,0.00,BKN,BKN,0.00,WeatherDisplay:10.34,2013-10-29 17:17:00,
2013-10-29 11:22:00,27.9,23.4,29.92,SSE,159,2.0,2.0,83,0.00,BKN,BKN,0.00,WeatherDisplay:10.34,2013-10-29 17:22:00,
2013-10-29 11:27:00,27.9,23.7,29.92,SSE,159,0.0,0.0,84,0.00,BKN,BKN,0.00,WeatherDisplay:10.34,2013-10-29 17:27:00,
2013-10-29 11:32:00,28.0,23.8,29.93,SSE,158,0.0,0.0,84,0.00,OVC,OVC,0.00,WeatherDisplay:10.34,2013-10-29 17:32:00,
2013-10-29 11:37:00,28.0,23.8,29.93,East,94,1.0,2.0,84,0.00,OVC,OVC,0.00,WeatherDisplay:10.34,2013-10-29 17:37:00,
2013-10-29 11:42:00,28.0,23.5,29.92,East,96,1.0,1.0,83,0.00,OVC,OVC,0.00,WeatherDisplay:10.34,2013-10-29 17:42:00,
2013-10-29 11:47:00,28.1,23.9,29.92,East,96,0.0,0.0,84,0.00,OVC,OVC,0.00,WeatherDisplay:10.34,2013-10-29 17:47:00,
2013-10-29 11:52:00,28.1,23.6,29.92,NE,55,0.0,1.0,83,0.00,OVC,OVC,0.00,WeatherDisplay:10.34,2013-10-29 17:52:00,
2013-10-29 11:57:00,28.2,24.0,29.92,NE,51,1.0,2.0,84,0.00,OVC,OVC,0.00,WeatherDisplay:10.34,2013-10-29 17:57:00,
2013-10-29 12:02:00,28.3,23.8,29.92,NE,49,1.0,2.0,83,0.00,OVC,OVC,0.00,WeatherDisplay:10.34,2013-10-29 18:02:00,
2013-10-29 12:07:00,28.3,23.8,29.92,NE,49,0.0,0.0,83,0.00,OVC,OVC,0.00,WeatherDisplay:10.34,2013-10-29 18:07:00,
2013-10-29 12:12:00,28.4,23.9,29.91,NE,50,1.0,1.0,83,0.00,OVC,OVC,0.00,WeatherDisplay:10.34,2013-10-29 18:12:00,
2013-10-29 12:17:00,28.7,24.2,29.91,NE,53,1.0,2.0,83,0.00,BKN,BKN,0.00,WeatherDisplay:10.34,2013-10-29 18:17:00,
2013-10-29 12:22:00,29.0,24.5,29.90,NE,52,0.0,0.0,83,0.00,SCT,SCT,0.00,WeatherDisplay:10.34,2013-10-29 18:22:00,
2013-10-29 12:27:00,29.3,24.8,29.90,NE,54,0.0,1.0,83,0.00,SCT,SCT,0.00,WeatherDisplay:10.34,2013-10-29 18:27:00,
2013-10-29 12:32:00,29.5,24.7,29.90,ESE,110,0.0,0.0,82,0.00,SCT,SCT,0.00,WeatherDisplay:10.34,2013-10-29 18:32:00,
2013-10-29 12:37:00,30.0,25.5,29.90,ESE,108,0.0,0.0,83,0.00,CLR,CLR,0.00,WeatherDisplay:10.34,2013-10-29 18:37:00,
2013-10-29 12:42:00,31.1,26.5,29.90,NE,53,1.0,2.0,83,0.00,CLR,CLR,0.00,WeatherDisplay:10.34,2013-10-29 18:42:00,
2013-10-29 12:47:00,32.1,27.2,29.89,NNE,32,1.0,1.0,82,0.00,CLR,CLR,0.00,WeatherDisplay:10.34,2013-10-29 18:47:00,
2013-10-29 12:52:00,32.9,27.7,29.89,NE,46,2.0,2.0,81,0.01,RA,RA,0.01,WeatherDisplay:10.34,2013-10-29 18:52:00,
2013-10-29 12:57:00,33.3,27.2,29.89,ENE,65,1.0,2.0,78,0.01,RA,RA,0.01,WeatherDisplay:10.34,2013-10-29 18:57:00,
2013-10-29 13:02:00,33.1,27.0,29.89,SE,128,0.0,0.0,78,0.01,CLR,CLR,0.01,WeatherDisplay:10.34,2013-10-29 19:02:00,
2013-10-29 13:07:00,32.8,26.4,29.89,SE,140,1.0,0.0,77,0.01,FEW,FEW,0.01,WeatherDisplay:10.34,2013-10-29 19:07:00,
2013-10-29 13:12:00,32.7,26.6,29.89,SE,142,0.0,0.0,78,0.01,SCT,SCT,0.01,WeatherDisplay:10.34,2013-10-29 19:12:00,
2013-10-29 13:17:00,32.8,26.7,29.89,South,186,5.0,7.0,78,0.01,SCT,SCT,0.01,WeatherDisplay:10.34,2013-10-29 19:17:00,
2013-10-29 13:22:00,32.5,26.1,29.88,South,190,0.0,1.0,77,0.01,BKN,BKN,0.01,WeatherDisplay:10.34,2013-10-29 19:22:00,
2013-10-29 13:27:00,32.4,26.0,29.88,SE,139,0.0,0.0,77,0.01,BKN,BKN,0.01,WeatherDisplay:10.34,2013-10-29 19:27:00,
2013-10-29 13:32:00,32.2,25.5,29.88,SE,139,0.0,0.0,76,0.01,OVC,OVC,0.01,WeatherDisplay:10.34,2013-10-29 19:32:00,
2013-10-29 13:37:00,32.2,26.1,29.88,ENE,74,0.0,0.0,78,0.01,BKN,BKN,0.01,WeatherDisplay:10.34,2013-10-29 19:37:00,
2013-10-29 13:42:00,32.3,26.2,29.87,East,82,1.0,1.0,78,0.01,BKN,BKN,0.01,WeatherDisplay:10.34,2013-10-29 19:42:00,
2013-10-29 13:47:00,32.5,26.4,29.87,East,90,1.0,1.0,78,0.01,SCT,SCT,0.01,WeatherDisplay:10.34,2013-10-29 19:47:00,
2013-10-29 13:52:00,32.9,26.8,29.87,ENE,74,3.0,3.0,78,0.00,SCT,SCT,0.01,WeatherDisplay:10.34,2013-10-29 19:52:00,
2013-10-29 13:57:00,33.3,27.2,29.87,ENE,78,7.0,8.0,78,0.00,SCT,SCT,0.01,WeatherDisplay:10.34,2013-10-29 19:57:00,
2013-10-29 14:02:00,33.3,26.5,29.87,ENE,76,0.0,0.0,76,0.00,BKN,BKN,0.01,WeatherDisplay:10.34,2013-10-29 20:02:00,
2013-10-29 14:07:00,33.5,26.7,29.85,East,97,4.0,4.0,76,0.00,SCT,SCT,0.01,WeatherDisplay:10.34,2013-10-29 20:07:00,
2013-10-29 14:12:00,33.5,26.4,29.86,ESE,119,6.0,7.0,75,0.00,BKN,BKN,0.01,WeatherDisplay:10.34,2013-10-29 20:12:00,
2013-10-29 14:17:00,33.4,26.3,29.85,SE,137,6.0,6.0,75,0.00,BKN,BKN,0.01,WeatherDisplay:10.34,2013-10-29 20:17:00,
2013-10-29 14:22:00,33.4,26.6,29.85,ESE,117,4.0,4.0,76,0.00,SCT,SCT,0.01,WeatherDisplay:10.34,2013-10-29 20:22:00,
2013-10-29 14:27:00,33.4,26.6,29.85,East,95,6.0,8.0,76,0.00,FEW,FEW,0.01,WeatherDisplay:10.34,2013-10-29 20:27:00,
2013-10-29 14:32:00,33.6,27.2,29.85,SE,132,7.0,8.0,77,0.00,SCT,SCT,0.01,WeatherDisplay:10.34,2013-10-29 20:32:00,
2013-10-29 14:37:00,33.6,26.8,29.85,ESE,121,7.0,7.0,76,0.00,BKN,BKN,0.01,WeatherDisplay:10.34,2013-10-29 20:37:00,
2013-10-29 14:42:00,33.5,26.7,29.85,ESE,113,7.0,9.0,76,0.00,BKN,BKN,0.01,WeatherDisplay:10.34,2013-10-29 20:42:00,
2013-10-29 14:47:00,33.4,26.6,29.85,ESE,117,6.0,7.0,76,0.00,BKN,BKN,0.01,WeatherDisplay:10.34,2013-10-29 20:47:00,
2013-10-29 14:52:00,33.4,26.6,29.85,SE,132,8.0,8.0,76,0.00,BKN,BKN,0.01,WeatherDisplay:10.34,2013-10-29 20:52:00,
2013-10-29 14:57:00,33.3,26.9,29.85,ESE,122,4.0,4.0,77,0.00,BKN,BKN,0.01,WeatherDisplay:10.34,2013-10-29 20:57:00,
2013-10-29 15:02:00,33.5,27.1,29.85,SE,124,7.0,9.0,77,0.00,OVC,OVC,0.01,WeatherDisplay:10.34,2013-10-29 21:02:00,
2013-10-29 15:07:00,33.5,27.1,29.85,East,98,6.0,8.0,77,0.00,OVC,OVC,0.01,WeatherDisplay:10.34,2013-10-29 21:07:00,
2013-10-29 15:12:00,33.4,26.6,29.85,South,176,6.0,7.0,76,0.00,OVC,OVC,0.01,WeatherDisplay:10.34,2013-10-29 21:12:00,
2013-10-29 15:17:00,33.2,26.8,29.85,ESE,123,14.0,14.0,77,0.00,OVC,OVC,0.01,WeatherDisplay:10.34,2013-10-29 21:17:00,
2013-10-29 15:22:00,33.1,27.0,29.85,SSE,147,10.0,10.0,78,0.00,OVC,OVC,0.01,WeatherDisplay:10.34,2013-10-29 21:22:00,
2013-10-29 15:27:00,33.1,27.0,29.85,ESE,105,9.0,10.0,78,0.00,OVC,OVC,0.01,WeatherDisplay:10.34,2013-10-29 21:27:00,
2013-10-29 15:32:00,33.1,27.3,29.85,ESE,105,6.0,9.0,79,0.00,OVC,OVC,0.01,WeatherDisplay:10.34,2013-10-29 21:32:00,
2013-10-29 15:37:00,33.1,27.3,29.85,ESE,123,10.0,10.0,79,0.00,OVC,OVC,0.01,WeatherDisplay:10.34,2013-10-29 21:37:00,
2013-10-29 15:42:00,33.1,27.0,29.85,ESE,105,11.0,11.0,78,0.00,OVC,OVC,0.01,WeatherDisplay:10.34,2013-10-29 21:42:00,
2013-10-29 15:47:00,33.0,26.9,29.85,SE,132,10.0,12.0,78,0.00,OVC,OVC,0.01,WeatherDisplay:10.34,2013-10-29 21:47:00,
2013-10-29 15:52:00,33.0,26.9,29.85,ESE,105,10.0,10.0,78,0.00,OVC,OVC,0.01,WeatherDisplay:10.34,2013-10-29 21:52:00,
2013-10-29 15:57:00,32.9,27.1,29.85,ESE,115,9.0,10.0,79,0.00,OVC,OVC,0.01,WeatherDisplay:10.34,2013-10-29 21:57:00,
2013-10-29 16:02:00,32.7,26.6,29.85,East,80,8.0,9.0,78,0.00,OVC,OVC,0.01,WeatherDisplay:10.34,2013-10-29 22:02:00,
2013-10-29 16:07:00,32.5,26.4,29.85,ENE,76,7.0,8.0,78,0.00,OVC,OVC,0.01,WeatherDisplay:10.34,2013-10-29 22:07:00,
2013-10-29 16:12:00,32.5,26.4,29.85,ESE,112,7.0,9.0,78,0.00,OVC,OVC,0.01,WeatherDisplay:10.34,2013-10-29 22:12:00,
2013-10-29 16:17:00,32.5,26.7,29.85,ENE,76,10.0,12.0,79,0.00,OVC,OVC,0.01,WeatherDisplay:10.34,2013-10-29 22:17:00,
2013-10-29 16:22:00,32.4,26.3,29.85,East,98,9.0,9.0,78,0.00,OVC,OVC,0.01,WeatherDisplay:10.34,2013-10-29 22:22:00,
2013-10-29 16:27:00,32.4,26.3,29.85,ESE,105,10.0,10.0,78,0.00,OVC,OVC,0.01,WeatherDisplay:10.34,2013-10-29 22:27:00,
2013-10-29 16:32:00,32.3,26.2,29.85,ESE,115,4.0,5.0,78,0.00,OVC,OVC,0.01,WeatherDisplay:10.34,2013-10-29 22:32:00,
2013-10-29 16:37:00,32.4,26.6,29.85,East,87,6.0,7.0,79,0.00,OVC,OVC,0.01,WeatherDisplay:10.34,2013-10-29 22:37:00,
2013-10-29 16:42:00,32.5,26.4,29.85,ESE,105,6.0,6.0,78,0.00,OVC,OVC,0.01,WeatherDisplay:10.34,2013-10-29 22:42:00,
2013-10-29 16:47:00,32.4,26.3,29.85,ESE,117,8.0,9.0,78,0.00,OVC,OVC,0.01,WeatherDisplay:10.34,2013-10-29 22:47:00,
2013-10-29 16:52:00,32.5,26.7,29.84,SE,141,6.0,6.0,79,0.00,OVC,OVC,0.01,WeatherDisplay:10.34,2013-10-29 22:52:00,
2013-10-29 16:57:00,32.5,26.4,29.84,ESE,105,5.0,7.0,78,0.00,OVC,OVC,0.01,WeatherDisplay:10.34,2013-10-29 22:57:00,
2013-10-29 17:02:00,32.4,26.6,29.84,ESE,107,6.0,6.0,79,0.00,OVC,OVC,0.01,WeatherDisplay:10.34,2013-10-29 23:02:00,
2013-10-29 17:07:00,32.4,26.6,29.84,ESE,113,6.0,7.0,79,0.00,OVC,OVC,0.01,WeatherDisplay:10.34,2013-10-29 23:07:00,
2013-10-29 17:12:00,32.4,26.6,29.85,East,95,8.0,8.0,79,0.00,OVC,OVC,0.01,WeatherDisplay:10.34,2013-10-29 23:12:00,
2013-10-29 17:17:00,32.4,26.3,29.85,East,96,4.0,4.0,78,0.00,OVC,OVC,0.01,WeatherDisplay:10.34,2013-10-29 23:17:00,
2013-10-29 17:22:00,32.4,26.6,29.84,East,84,10.0,10.0,79,0.00,OVC,OVC,0.01,WeatherDisplay:10.34,2013-10-29 23:22:00,
2013-10-29 17:27:00,32.5,26.7,29.84,ESE,115,8.0,8.0,79,0.00,OVC,OVC,0.01,WeatherDisplay:10.34,2013-10-29 23:27:00,
2013-10-29 17:32:00,32.4,26.6,29.84,ENE,75,6.0,7.0,79,0.00,OVC,OVC,0.01,WeatherDisplay:10.34,2013-10-29 23:32:00,
2013-10-29 17:37:00,32.3,26.5,29.84,East,92,5.0,7.0,79,0.00,OVC,OVC,0.01,WeatherDisplay:10.34,2013-10-29 23:37:00,
2013-10-29 17:42:00,32.3,26.5,29.84,ENE,76,7.0,8.0,79,0.00,OVC,OVC,0.01,WeatherDisplay:10.34,2013-10-29 23:42:00,
2013-10-29 17:47:00,32.3,26.5,29.84,ESE,105,7.0,7.0,79,0.00,OVC,OVC,0.01,WeatherDisplay:10.34,2013-10-29 23:47:00,
2013-10-29 17:52:00,32.2,26.4,29.84,East,88,8.0,8.0,79,0.00,OVC,OVC,0.01,WeatherDisplay:10.34,2013-10-29 23:52:00,
2013-10-29 17:57:00,32.2,26.4,29.84,ESE,113,4.0,4.0,79,0.00,OVC,OVC,0.01,WeatherDisplay:10.34,2013-10-29 23:57:00,
2013-10-29 18:02:00,32.2,26.4,29.84,ESE,109,7.0,7.0,79,0.00,OVC,OVC,0.01,WeatherDisplay:10.34,2013-10-30 00:02:00,
2013-10-29 18:07:00,32.1,26.6,29.84,SE,126,7.0,7.0,80,0.00,OVC,OVC,0.01,WeatherDisplay:10.34,2013-10-30 00:07:00,
2013-10-29 18:12:00,32.1,26.6,29.84,ENE,69,8.0,8.0,80,0.00,OVC,OVC,0.01,WeatherDisplay:10.34,2013-10-30 00:12:00,
2013-10-29 18:17:00,32.0,26.5,29.84,East,91,6.0,7.0,80,0.00,OVC,OVC,0.01,WeatherDisplay:10.34,2013-10-30 00:17:00,
2013-10-29 18:22:00,32.0,26.5,29.84,East,80,8.0,8.0,80,0.00,OVC,OVC,0.01,WeatherDisplay:10.34,2013-10-30 00:22:00,
2013-10-29 18:27:00,32.0,26.5,29.84,East,93,5.0,7.0,80,0.00,OVC,OVC,0.01,WeatherDisplay:10.34,2013-10-30 00:27:00,
2013-10-29 18:32:00,31.9,26.4,29.83,ESE,109,5.0,5.0,80,0.00,OVC,OVC,0.01,WeatherDisplay:10.34,2013-10-30 00:32:00,
2013-10-29 18:37:00,31.9,26.4,29.83,ESE,103,5.0,5.0,80,0.00,OVC,OVC,0.01,WeatherDisplay:10.34,2013-10-30 00:37:00,
2013-10-29 18:42:00,31.9,26.4,29.83,East,95,4.0,7.0,80,0.00,OVC,OVC,0.01,WeatherDisplay:10.34,2013-10-30 00:42:00,
2013-10-29 18:47:00,31.9,26.4,29.83,ESE,112,6.0,6.0,80,0.00,OVC,OVC,0.01,WeatherDisplay:10.34,2013-10-30 00:47:00,
2013-10-29 18:52:00,31.8,26.6,29.83,East,101,7.0,7.0,81,0.00,OVC,OVC,0.01,WeatherDisplay:10.34,2013-10-30 00:52:00,
2013-10-29 18:57:00,31.8,26.3,29.83,ESE,103,4.0,4.0,80,0.00,OVC,OVC,0.01,WeatherDisplay:10.34,2013-10-30 00:57:00,
2013-10-29 19:02:00,31.8,26.6,29.83,ESE,107,3.0,3.0,81,0.00,CLR,CLR,0.01,WeatherDisplay:10.34,2013-10-30 01:02:00,
2013-10-29 19:07:00,31.8,26.6,29.83,East,101,6.0,7.0,81,0.00,CLR,CLR,0.01,WeatherDisplay:10.34,2013-10-30 01:07:00,
2013-10-29 19:12:00,31.7,26.8,29.83,ESE,105,7.0,8.0,82,0.00,CLR,CLR,0.01,WeatherDisplay:10.34,2013-10-30 01:12:00,
2013-10-29 19:17:00,31.7,26.8,29.83,East,84,4.0,4.0,82,0.00,CLR,CLR,0.01,WeatherDisplay:10.34,2013-10-30 01:17:00,
2013-10-29 19:22:00,31.7,26.8,29.83,East,101,7.0,9.0,82,0.00,CLR,CLR,0.01,WeatherDisplay:10.34,2013-10-30 01:22:00,
2013-10-29 19:27:00,31.6,26.7,29.84,ENE,78,7.0,7.0,82,0.00,CLR,CLR,0.01,WeatherDisplay:10.34,2013-10-30 01:27:00,
2013-10-29 19:32:00,31.6,26.7,29.84,East,96,6.0,8.0,82,0.00,CLR,CLR,0.01,WeatherDisplay:10.34,2013-10-30 01:32:00,
2013-10-29 19:37:00,31.7,26.8,29.84,East,92,3.0,3.0,82,0.00,CLR,CLR,0.01,WeatherDisplay:10.34,2013-10-30 01:37:00,
2013-10-29 19:42:00,31.7,27.1,29.84,ENE,76,8.0,9.0,83,0.00,CLR,CLR,0.01,WeatherDisplay:10.34,2013-10-30 01:42:00,
2013-10-29 19:47:00,31.7,27.1,29.84,SE,126,5.0,7.0,83,0.00,CLR,CLR,0.01,WeatherDisplay:10.34,2013-10-30 01:47:00,
2013-10-29 19:52:00,31.7,27.1,29.83,East,85,8.0,10.0,83,0.00,CLR,CLR,0.01,WeatherDisplay:10.34,2013-10-30 01:52:00,
2013-10-29 19:57:00,31.7,27.1,29.83,ESE,107,4.0,4.0,83,0.00,CLR,CLR,0.01,WeatherDisplay:10.34,2013-10-30 01:57:00,
2013-10-29 20:02:00,31.7,27.1,29.83,East,82,4.0,7.0,83,0.00,CLR,CLR,0.01,WeatherDisplay:10.34,2013-10-30 02:02:00,
2013-10-29 20:07:00,31.8,27.2,29.83,ESE,106,7.0,9.0,83,0.00,CLR,CLR,0.01,WeatherDisplay:10.34,2013-10-30 02:07:00,
2013-10-29 20:12:00,31.8,27.2,29.83,East,99,5.0,7.0,83,0.00,CLR,CLR,0.01,WeatherDisplay:10.34,2013-10-30 02:12:00,
2013-10-29 20:17:00,31.8,27.2,29.83,ESE,117,4.0,4.0,83,0.00,CLR,CLR,0.01,WeatherDisplay:10.34,2013-10-30 02:17:00,
2013-10-29 20:22:00,31.8,27.2,29.83,ENE,60,4.0,4.0,83,0.00,CLR,CLR,0.01,WeatherDisplay:10.34,2013-10-30 02:22:00,
2013-10-29 20:27:00,31.9,27.3,29.83,East,94,5.0,5.0,83,0.00,CLR,CLR,0.01,WeatherDisplay:10.34,2013-10-30 02:27:00,
2013-10-29 20:32:00,31.9,27.3,29.83,ENE,74,6.0,8.0,83,0.00,CLR,CLR,0.01,WeatherDisplay:10.34,2013-10-30 02:32:00,
2013-10-29 20:37:00,31.9,27.3,29.83,ENE,69,4.0,8.0,83,0.00,CLR,CLR,0.01,WeatherDisplay:10.34,2013-10-30 02:37:00,
2013-10-29 20:42:00,31.9,27.3,29.83,East,101,5.0,7.0,83,0.00,CLR,CLR,0.01,WeatherDisplay:10.34,2013-10-30 02:42:00,
2013-10-29 20:47:00,32.0,27.7,29.83,ESE,110,4.0,4.0,84,0.00,CLR,CLR,0.01,WeatherDisplay:10.34,2013-10-30 02:47:00,
2013-10-29 20:52:00,32.0,27.7,29.83,ESE,114,3.0,3.0,84,0.00,CLR,CLR,0.01,WeatherDisplay:10.34,2013-10-30 02:52:00,
2013-10-29 20:57:00,32.1,27.8,29.83,SE,126,2.0,2.0,84,0.00,CLR,CLR,0.01,WeatherDisplay:10.34,2013-10-30 02:57:00,
2013-10-29 21:02:00,32.1,27.8,29.84,SE,133,2.0,2.0,84,0.00,CLR,CLR,0.01,WeatherDisplay:10.34,2013-10-30 03:02:00,
2013-10-29 21:07:00,32.2,27.9,29.84,SE,134,3.0,3.0,84,0.00,CLR,CLR,0.01,WeatherDisplay:10.34,2013-10-30 03:07:00,
2013-10-29 21:12:00,32.2,27.9,29.84,SE,133,3.0,3.0,84,0.00,CLR,CLR,0.01,WeatherDisplay:10.34,2013-10-30 03:12:00,
2013-10-29 21:17:00,32.2,27.9,29.84,SE,134,0.0,1.0,84,0.00,CLR,CLR,0.01,WeatherDisplay:10.34,2013-10-30 03:17:00,
2013-10-29 21:22:00,32.3,28.0,29.84,SE,134,0.0,1.0,84,0.00,CLR,CLR,0.01,WeatherDisplay:10.34,2013-10-30 03:22:00,
2013-10-29 21:27:00,32.2,28.2,29.84,SE,133,1.0,2.0,85,0.00,CLR,CLR,0.01,WeatherDisplay:10.34,2013-10-30 03:27:00,
2013-10-29 21:32:00,32.3,28.3,29.84,SE,126,1.0,1.0,85,0.00,CLR,CLR,0.01,WeatherDisplay:10.34,2013-10-30 03:32:00,
2013-10-29 21:37:00,32.3,28.3,29.84,East,99,2.0,2.0,85,0.00,CLR,CLR,0.01,WeatherDisplay:10.34,2013-10-30 03:37:00,
2013-10-29 21:42:00,32.3,28.3,29.84,ENE,75,2.0,3.0,85,0.00,CLR,CLR,0.01,WeatherDisplay:10.34,2013-10-30 03:42:00,
2013-10-29 21:47:00,32.3,28.3,29.84,ENE,73,5.0,5.0,85,0.00,CLR,CLR,0.01,WeatherDisplay:10.34,2013-10-30 03:47:00,
2013-10-29 21:52:00,32.3,28.3,29.84,NE,56,6.0,7.0,85,0.00,CLR,CLR,0.01,WeatherDisplay:10.34,2013-10-30 03:52:00,
2013-10-29 21:57:00,32.1,28.1,29.84,NE,54,3.0,3.0,85,0.00,CLR,CLR,0.01,WeatherDisplay:10.34,2013-10-30 03:57:00,
2013-10-29 22:01:00,32.0,28.0,29.84,ENE,66,3.0,3.0,85,0.00,CLR,CLR,0.01,WeatherDisplay:10.34,2013-10-30 04:01:00,
2013-10-29 22:02:00,32.0,28.0,29.84,ENE,66,2.0,3.0,85,0.00,CLR,CLR,0.01,WeatherDisplay:10.34,2013-10-30 04:02:00,
2013-10-29 22:03:00,31.9,27.9,29.84,ENE,64,1.0,2.0,85,0.00,CLR,CLR,0.01,WeatherDisplay:10.34,2013-10-30 04:03:00,
2013-10-29 22:04:00,31.9,27.9,29.84,ENE,68,1.0,1.0,85,0.00,CLR,CLR,0.01,WeatherDisplay:10.34,2013-10-30 04:04:00,
2013-10-29 22:08:00,31.8,27.8,29.84,ENE,68,0.0,1.0,85,0.00,CLR,CLR,0.01,WeatherDisplay:10.34,2013-10-30 04:08:00,
2013-10-29 22:13:00,31.8,27.8,29.84,ENE,67,0.0,1.0,85,0.00,CLR,CLR,0.01,WeatherDisplay:10.34,2013-10-30 04:13:00,
2013-10-29 22:18:00,31.7,28.0,29.83,ENE,67,3.0,3.0,86,0.00,CLR,CLR,0.01,WeatherDisplay:10.34,2013-10-30 04:18:00,
2013-10-29 22:23:00,31.6,29.5,29.83,NE,42,1.0,1.0,92,0.00,CLR,CLR,0.01,WeatherDisplay:10.34,2013-10-30 04:23:00,
2013-10-29 22:28:00,31.6,27.9,29.83,ENE,59,2.0,3.0,86,0.00,CLR,CLR,0.01,WeatherDisplay:10.34,2013-10-30 04:28:00,
2013-10-29 22:33:00,31.5,27.8,29.83,NE,53,5.0,7.0,86,0.00,CLR,CLR,0.01,WeatherDisplay:10.34,2013-10-30 04:33:00,
2013-10-29 22:38:00,31.4,28.0,29.83,ENE,57,5.0,5.0,87,0.00,CLR,CLR,0.01,WeatherDisplay:10.34,2013-10-30 04:38:00,
2013-10-29 22:43:00,31.3,27.9,29.83,NE,56,1.0,2.0,87,0.00,CLR,CLR,0.01,WeatherDisplay:10.34,2013-10-30 04:43:00,
2013-10-29 22:48:00,31.2,27.8,29.83,ENE,59,1.0,1.0,87,0.00,CLR,CLR,0.01,WeatherDisplay:10.34,2013-10-30 04:48:00,
2013-10-29 22:53:00,31.2,27.8,29.83,ENE,58,0.0,1.0,87,0.00,CLR,CLR,0.01,WeatherDisplay:10.34,2013-10-30 04:53:00,
2013-10-29 22:58:00,31.1,27.7,29.83,NE,51,1.0,1.0,87,0.00,CLR,CLR,0.01,WeatherDisplay:10.34,2013-10-30 04:58:00,
2013-10-29 23:03:00,31.1,28.0,29.83,NE,49,4.0,5.0,88,0.00,CLR,CLR,0.01,WeatherDisplay:10.34,2013-10-30 05:03:00,
2013-10-29 23:08:00,31.1,27.7,29.83,ENE,78,3.0,3.0,87,0.00,CLR,CLR,0.01,WeatherDisplay:10.34,2013-10-30 05:08:00,
2013-10-29 23:13:00,31.1,28.0,29.82,East,79,5.0,5.0,88,0.00,CLR,CLR,0.01,WeatherDisplay:10.34,2013-10-30 05:13:00,
2013-10-29 23:18:00,31.0,27.9,29.82,NE,56,1.0,2.0,88,0.00,CLR,CLR,0.01,WeatherDisplay:10.34,2013-10-30 05:18:00,
2013-10-29 23:23:00,31.0,27.9,29.82,ENE,57,2.0,3.0,88,0.00,CLR,CLR,0.01,WeatherDisplay:10.34,2013-10-30 05:23:00,
2013-10-29 23:28:00,31.0,27.9,29.82,NE,43,5.0,5.0,88,0.00,CLR,CLR,0.01,WeatherDisplay:10.34,2013-10-30 05:28:00,
2013-10-29 23:33:00,31.0,27.9,29.82,ENE,60,2.0,2.0,88,0.00,CLR,CLR,0.01,WeatherDisplay:10.34,2013-10-30 05:33:00,
2013-10-29 23:38:00,31.0,27.9,29.82,ENE,60,3.0,3.0,88,0.00,CLR,CLR,0.01,WeatherDisplay:10.34,2013-10-30 05:38:00,
2013-10-29 23:43:00,31.0,28.1,29.81,NE,52,2.0,3.0,89,0.00,CLR,CLR,0.01,WeatherDisplay:10.34,2013-10-30 05:43:00,
2013-10-29 23:48:00,31.0,28.1,29.81,NNE,19,1.0,3.0,89,0.00,CLR,CLR,0.01,WeatherDisplay:10.34,2013-10-30 05:48:00,
2013-10-29 23:53:00,31.0,28.1,29.81,ENE,74,4.0,7.0,89,0.00,CLR,CLR,0.01,WeatherDisplay:10.34,2013-10-30 05:53:00,
2013-10-29 23:58:00,30.9,28.0,29.81,NE,46,2.0,3.0,89,0.00,CLR,CLR,0.01,WeatherDisplay:10.34,2013-10-30 05:58:00,